Alabaster, AL

4:36 PM CST on December 05, 2019 (GMT -0600)
Shelby County

Weather History for KEET - August, 2019

Change the Weather History Date:

Friday, August 16, 2019

  Actual Average Record
Temperature  
Mean Temperature 83 °F 80 °F  
Max Temperature 99 °F 90 °F 100 °F (2007)
Min Temperature 67 °F 70 °F 56 °F (1983)
Cooling Degree Days 18 15  
Month to date cooling degree days 298 252  
Year to date cooling degree days 1587 1382  
Since 1 June cooling degree days 1190 1113  
Growing Degree Days 33 (Base 50)    
Moisture  
Dew Point 60 °F    
Average Humidity 57    
Maximum Humidity 93    
Minimum Humidity 21    
Precipitation  
Precipitation 0.00 in 0.17 in 0.53 in (2015)
Month to date precipitation 0.71 2.40  
Year to date precipitation 31.99 35.72  
Sea Level Pressure  
Sea Level Pressure 29.96 in    
Wind  
Wind Speed 3 mph (NNW)    
Max Wind Speed 16 mph    
Max Gust Speed 23 mph    
Visibility 10 miles    
Events      
T = Trace of Precipitation, MM = Missing Value Source: NWS Daily Summary

Daily Weather History Graph

Daily Weather History Graph

Search for Another Location

Airport or City:

Astronomy

Aug. 16, 2019 Rise Set
Actual Time 6:10 AM CDT 7:31 PM CDT
Civil Twilight 5:44 AM CDT 7:57 PM CDT
Nautical Twilight 5:13 AM CDT 8:28 PM CDT
Astronomical Twilight 4:40 AM CDT 9:01 PM CDT
Moon 8:32 PM CDT (8/16) 7:01 AM CDT (8/16)
Length of Visible Light 14h 13m
Length of Day
13h 21m
Full, 99% of the Moon is Illuminated
Aug 16
Full
Aug 23
Last Quarter
Aug 30
New
Sep 5
First Quarter
Sep 13
Full

Hourly Weather History & Observations

Time (CDT) Temp. Heat Index Dew Point Humidity Pressure Visibility Wind Dir Wind Speed Gust Speed Precip Events Conditions
12:53 AM 73.0 °F - 66.0 °F 79% 29.94 in 10.0 mi Calm Calm - N/A   Clear
1:53 AM 70.0 °F - 66.0 °F 87% 29.95 in 10.0 mi Calm Calm - N/A   Clear
2:53 AM 69.1 °F - 66.0 °F 90% 29.94 in 10.0 mi Calm Calm - N/A   Clear
3:53 AM 69.1 °F - 64.9 °F 87% 29.94 in 10.0 mi Calm Calm - N/A   Clear
4:53 AM 68.0 °F - 66.0 °F 93% 29.96 in 10.0 mi Calm Calm - N/A   Clear
5:53 AM 68.0 °F - 64.9 °F 90% 29.98 in 10.0 mi Calm Calm - N/A   Clear
6:53 AM 69.1 °F - 66.0 °F 90% 29.99 in 10.0 mi Calm Calm - N/A   Clear
7:53 AM 80.1 °F 81.9 °F 64.9 °F 60% 30.00 in 10.0 mi North 3.5 mph - N/A   Clear
8:53 AM 84.9 °F 86.1 °F 64.0 °F 49% 29.99 in 9.0 mi Calm Calm - N/A   Clear
9:53 AM 88.0 °F 87.1 °F 59.0 °F 37% 30.00 in 10.0 mi NE 5.8 mph - N/A   Clear
10:53 AM 90.0 °F 88.1 °F 55.9 °F 31% 30.00 in 10.0 mi NW 5.8 mph - N/A   Clear
11:53 AM 93.9 °F 92.2 °F 55.9 °F 28% 29.99 in 10.0 mi NNW 9.2 mph - N/A   Clear
12:53 PM 97.0 °F - 51.1 °F 21% 29.98 in 10.0 mi NNW 9.2 mph - N/A   Clear
1:53 PM 97.0 °F - 51.1 °F 21% 29.96 in 10.0 mi NW 12.7 mph 21.9 mph N/A   Clear
2:53 PM 98.1 °F - 51.1 °F 20% 29.93 in 10.0 mi Variable 5.8 mph - N/A   Clear
3:53 PM 98.1 °F - 52.0 °F 21% 29.93 in 10.0 mi Variable 4.6 mph 17.3 mph N/A   Clear
4:53 PM 96.1 °F - 52.0 °F 22% 29.92 in 10.0 mi Variable 6.9 mph - N/A   Clear
5:53 PM 96.1 °F - 51.1 °F 22% 29.91 in 10.0 mi North 8.1 mph - N/A   Clear
6:53 PM 93.9 °F 92.0 °F 55.0 °F 27% 29.91 in 10.0 mi Variable 3.5 mph - N/A   Clear
7:53 PM 88.0 °F 86.7 °F 57.0 °F 35% 29.93 in 10.0 mi NNE 3.5 mph - N/A   Clear
8:53 PM 78.1 °F - 64.0 °F 62% 29.95 in 10.0 mi Calm Calm - N/A   Clear
9:53 PM 75.0 °F - 64.0 °F 69% 29.96 in 10.0 mi Calm Calm - N/A   Clear
10:53 PM 73.0 °F - 64.0 °F 73% 29.96 in 10.0 mi Calm Calm - N/A   Clear
11:53 PM 71.1 °F - 64.0 °F 78% 29.96 in 10.0 mi Calm Calm - N/A   Clear